Regional Weather Roundup
Issued by NWS

Home | Current Version | Previous Version | Graphics & Text | Print | Product List | Glossary On
Versions: 1 2 3 4 5 6 7 8 9 10 11 12 13 14 15 16 17 18 19 20 21 22 23 24 25 26 27 28 29 30 31 32 33 34 35 36 37 38 39 40 41 42 43 44 45 46 47 48 49 50
490
ASUS45 KCYS 231110
RWRWY

WYOMING REGIONAL WEATHER ROUNDUP
NATIONAL WEATHER SERVICE CHEYENNE WY
500 AM MDT SUN JUL 23 2017

NOTE:  "FAIR" INDICATES FEW OR NO CLOUDS BELOW 12,000 FEET
WITH NO SIGNIFICANT WEATHER AND/OR OBSTRUCTIONS TO VISIBILITY.

WYZ001-231200-
YELLOWSTONE NATIONAL PARK

CITY           SKY/WX    TMP DP  RH WIND       PRES   REMARKS
LK YELLOWSTONE   N/A     39  36  89 CALM      30.40S
W YELLOWSTONE  NOT AVBL

$$
WYZ002>013-054>058-071-098>099-231200-
NORTHERN WYOMING

CITY           SKY/WX    TMP DP  RH WIND       PRES   REMARKS
JACKSON        FAIR      45  37  76 CALM      30.30S
CODY           FAIR      63  35  35 SW8       30.18S
GREYBULL       FAIR      58  41  53 E5        30.10R
WORLAND        FAIR      56  33  42 CALM      30.11S
SHERIDAN       FAIR      54  42  64 N3        30.11R
BUFFALO        FAIR      64  31  28 CALM      30.17S
GILLETTE       FAIR      61  38  42 CALM      30.14R
HULETT         FAIR      63  37  39 CALM      30.15S
NEWCASTLE      FAIR      61  37  41 CALM      30.14S

$$
WYZ014>020-022>026-101>103-231200-
CENTRAL WYOMING

CITY           SKY/WX    TMP DP  RH WIND       PRES   REMARKS
BIG PINEY      FAIR      43  34  70 NW6       30.31S
PINEDALE       FAIR      43  37  81 NW7       30.32S
DUBOIS         FAIR      46  32  57 NW12      30.33S
LANDER         FAIR      64  33  31 W13       30.22R
RIVERTON       FAIR      58  41  53 N7        30.20S
CASPER         FAIR      56  36  47 W3        30.20R
DOUGLAS        FAIR      56  51  84 NW3       30.18R

$$
WYZ021-027>030-104>119-231200-
SOUTHERN WYOMING

CITY           SKY/WX    TMP DP  RH WIND       PRES   REMARKS
EVANSTON       FAIR      57  34  41 E5        30.30S
KEMMERER         N/A     52  32  46 NW12      30.32S
FORT BRIDGER   FAIR      57  30  35 NW6       30.32R
ROCK SPRINGS   FAIR      60  32  34 W7        30.27R
RAWLINS        FAIR      51  33  50 N3        30.29R
SARATOGA       FAIR      55  36  47 SE8       30.31S
LARAMIE        FAIR      49  45  86 S6        30.33S
CHEYENNE       FAIR      57  48  72 W8        30.24S
TORRINGTON     FAIR      60  53  77 E9        30.11R
PINE BLUFFS    FAIR      52  50  93 W5        30.20S

$$




USA.gov is the U.S. government's official web portal to all federal, state and local government web resources and services.